• în Republica Moldova
  • Lista ţărilor
  • Pe 7 zile
  • Temperatura apei
  • Hartă satelitară
  • Meteo pe hartă
  • Widget-uri
  • user-avatar
    Intrare

    Meteo pe oră la Igls

    Astăzi, 28 Aprilie, Vineri

    Timp Temperatura Precipitaţii Vânt Presiune Umiditate
    00:00 +2°C° 1 mm 1 m/s 676 mmHg 98%
    01:00 0°C° 0 mm 0 m/s 676 mmHg 98%
    02:00 +1°C° 0,7 mm 1 m/s 676 mmHg 98%
    03:00 +1°C° 0,7 mm 1 m/s 676 mmHg 98%
    04:00 +1°C° 0,7 mm 1 m/s 675 mmHg 99%
    05:00 +1°C° 1,1 mm 1 m/s 675 mmHg 98%
    06:00 +2°C° 1,1 mm 1 m/s 675 mmHg 98%
    07:00 +1°C° 0 mm 1 m/s 676 mmHg 98%
    08:00 +2°C° 1,6 mm 1 m/s 676 mmHg 98%
    09:00 +2°C° 1,6 mm 1 m/s 676 mmHg 97%
    10:00 +1°C° 1,6 mm 2 m/s 676 mmHg 97%
    11:00 +2°C° 1,2 mm 2 m/s 677 mmHg 97%
    12:00 +2°C° 1,2 mm 2 m/s 677 mmHg 97%
    13:00 +3°C° 1,2 mm 2 m/s 678 mmHg 97%
    14:00 +3°C° 0,9 mm 2 m/s 678 mmHg 96%
    15:00 +3°C° 0,9 mm 2 m/s 678 mmHg 96%
    16:00 +3°C° 0,9 mm 2 m/s 679 mmHg 96%
    17:00 +2°C° 0,5 mm 2 m/s 679 mmHg 96%
    18:00 +2°C° 0,5 mm 2 m/s 680 mmHg 97%
    19:00 +1°C° 0,5 mm 2 m/s 680 mmHg 97%
    20:00 +1°C° 0,3 mm 2 m/s 681 mmHg 97%
    21:00 -1°C° 0,3 mm 2 m/s 681 mmHg 97%
    22:00 -2°C° 0,3 mm 2 m/s 682 mmHg 97%
    23:00 -3°C° 0,1 mm 2 m/s 682 mmHg 97%

    Mâine, 29 Aprilie, Sâmbătă

    Timp Temperatura Precipitaţii Vânt Presiune Umiditate
    00:00 -3°C° 0,1 mm 2 m/s 682 mmHg 97%
    01:00 -2°C° 0,1 mm 1 m/s 682 mmHg 97%
    02:00 -3°C° 0 mm 1 m/s 682 mmHg 96%
    03:00 -4°C° 0 mm 1 m/s 682 mmHg 96%
    04:00 -6°C° 0 mm 1 m/s 682 mmHg 96%
    05:00 -3°C° 0 mm 1 m/s 683 mmHg 96%
    06:00 -1°C° 0 mm 1 m/s 683 mmHg 95%
    07:00 +1°C° 0 mm 1 m/s 684 mmHg 95%
    08:00 +3°C° 0 mm 1 m/s 684 mmHg 95%
    09:00 +4°C° 0 mm 0 m/s 684 mmHg 95%
    10:00 +5°C° 0 mm 0 m/s 684 mmHg 95%
    11:00 +6°C° 0 mm 0 m/s 684 mmHg 95%
    12:00 +6°C° 0 mm 0 m/s 684 mmHg 95%
    13:00 +7°C° 0 mm 1 m/s 683 mmHg 94%
    14:00 +7°C° 0 mm 1 m/s 683 mmHg 94%
    15:00 +7°C° 0 mm 0 m/s 683 mmHg 94%
    16:00 +7°C° 0 mm 0 m/s 683 mmHg 94%
    17:00 +6°C° 0 mm 0 m/s 683 mmHg 95%
    18:00 +5°C° 0 mm 0 m/s 683 mmHg 96%
    19:00 +4°C° 0 mm 1 m/s 682 mmHg 98%
    20:00 +4°C° 0 mm 1 m/s 683 mmHg 97%
    21:00 +3°C° 0 mm 1 m/s 683 mmHg 97%
    22:00 +2°C° 0 mm 1 m/s 683 mmHg 97%
    23:00 +2°C° 0 mm 1 m/s 683 mmHg 97%

    Poimâine, 30 Aprilie, Duminică

    Timp Temperatura Precipitaţii Vânt Presiune Umiditate
    00:00 -1°C° 0 mm 2 m/s 683 mmHg 96%
    01:00 -1°C° 0 mm 2 m/s 683 mmHg 96%
    02:00 -1°C° 0 mm 2 m/s 682 mmHg 96%
    03:00 -1°C° 0 mm 2 m/s 682 mmHg 96%
    04:00 -1°C° 0 mm 2 m/s 682 mmHg 96%
    05:00 +1°C° 0 mm 2 m/s 682 mmHg 95%
    06:00 +3°C° 0 mm 2 m/s 683 mmHg 94%
    07:00 +4°C° 0 mm 2 m/s 683 mmHg 94%
    08:00 +5°C° 0 mm 2 m/s 682 mmHg 93%
    09:00 +7°C° 0 mm 2 m/s 682 mmHg 93%
    10:00 +9°C° 0 mm 1 m/s 682 mmHg 92%
    11:00 +10°C° 0 mm 1 m/s 682 mmHg 91%
    12:00 +10°C° 0 mm 1 m/s 681 mmHg 90%
    13:00 +10°C° 0 mm 2 m/s 681 mmHg 90%
    14:00 +10°C° 0 mm 2 m/s 681 mmHg 89%
    15:00 +10°C° 0 mm 2 m/s 680 mmHg 89%
    16:00 +12°C° 0 mm 2 m/s 680 mmHg 89%
    17:00 +9°C° 0 mm 2 m/s 680 mmHg 92%
    18:00 +7°C° 0 mm 2 m/s 679 mmHg 94%
    19:00 +6°C° 0 mm 2 m/s 679 mmHg 96%
    20:00 +5°C° 0 mm 2 m/s 679 mmHg 96%
    21:00 +5°C° 0 mm 2 m/s 679 mmHg 96%
    22:00 +5°C° 0 mm 2 m/s 680 mmHg 96%
    23:00 +4°C° 0 mm 2 m/s 679 mmHg 96%

    1 Mai, Luni

    Timp Temperatura Precipitaţii Vânt Presiune Umiditate
    00:00 +4°C° 0 mm 2 m/s 679 mmHg 96%
    01:00 +4°C° 0 mm 2 m/s 679 mmHg 95%
    02:00 +4°C° 0 mm 2 m/s 679 mmHg 95%
    03:00 +4°C° 0 mm 2 m/s 679 mmHg 95%
    04:00 +3°C° 0 mm 2 m/s 679 mmHg 95%
    05:00 +4°C° 0 mm 2 m/s 679 mmHg 94%
    06:00 +5°C° 0 mm 2 m/s 679 mmHg 92%
    07:00 +7°C° 0 mm 1 m/s 679 mmHg 91%
    08:00 +7°C° 0,4 mm 2 m/s 680 mmHg 91%
    09:00 +7°C° 0,4 mm 2 m/s 680 mmHg 91%
    10:00 +8°C° 0,4 mm 2 m/s 680 mmHg 91%
    11:00 +7°C° 1,6 mm 2 m/s 681 mmHg 92%
    12:00 +7°C° 1,6 mm 2 m/s 681 mmHg 94%
    13:00 +6°C° 1,6 mm 2 m/s 681 mmHg 95%
    14:00 +5°C° 1,4 mm 2 m/s 681 mmHg 95%
    15:00 +5°C° 1,4 mm 2 m/s 682 mmHg 95%
    16:00 +4°C° 1,4 mm 2 m/s 682 mmHg 95%
    17:00 +4°C° 0,6 mm 2 m/s 682 mmHg 96%
    18:00 +3°C° 0,6 mm 2 m/s 682 mmHg 96%
    19:00 +2°C° 0,6 mm 2 m/s 682 mmHg 96%
    20:00 +2°C° 0,2 mm 2 m/s 683 mmHg 96%
    21:00 +1°C° 0,2 mm 2 m/s 683 mmHg 95%
    22:00 -1°C° 0,2 mm 2 m/s 683 mmHg 95%
    23:00 0°C° 0 mm 1 m/s 683 mmHg 95%

    2 Mai, Marţi

    Timp Temperatura Precipitaţii Vânt Presiune Umiditate
    00:00 -2°C° 0 mm 1 m/s 682 mmHg 95%
    01:00 -4°C° 0 mm 1 m/s 682 mmHg 95%
    02:00 -4°C° 0 mm 1 m/s 682 mmHg 94%
    03:00 -3°C° 0 mm 1 m/s 682 mmHg 93%
    04:00 -3°C° 0 mm 1 m/s 682 mmHg 93%
    05:00 -1°C° 0 mm 1 m/s 682 mmHg 91%
    06:00 +2°C° 0 mm 1 m/s 682 mmHg 90%
    07:00 +5°C° 0 mm 1 m/s 683 mmHg 89%
    08:00 +6°C° 0 mm 1 m/s 683 mmHg 90%
    09:00 +7°C° 0 mm 1 m/s 683 mmHg 90%
    10:00 +9°C° 0 mm 1 m/s 683 mmHg 91%
    11:00 +8°C° 0 mm 2 m/s 682 mmHg 90%
    12:00 +9°C° 0 mm 2 m/s 682 mmHg 89%
    13:00 +10°C° 0 mm 2 m/s 681 mmHg 88%
    14:00 +10°C° 0,1 mm 2 m/s 681 mmHg 89%
    15:00 +10°C° 0,1 mm 2 m/s 680 mmHg 89%
    16:00 +10°C° 0,1 mm 2 m/s 680 mmHg 90%
    17:00 +9°C° 0,3 mm 2 m/s 680 mmHg 92%
    18:00 +9°C° 0,3 mm 1 m/s 679 mmHg 94%
    19:00 +8°C° 0,3 mm 1 m/s 679 mmHg 96%
    20:00 +7°C° 0,2 mm 1 m/s 679 mmHg 96%
    21:00 +7°C° 0,2 mm 1 m/s 679 mmHg 97%
    22:00 +6°C° 0,2 mm 1 m/s 679 mmHg 97%
    23:00 +6°C° 1,4 mm 1 m/s 679 mmHg 97%

    3 Mai, Miercuri

    Timp Temperatura Precipitaţii Vânt Presiune Umiditate
    00:00 +6°C° 1,4 mm 1 m/s 679 mmHg 97%
    01:00 +6°C° 1,4 mm 1 m/s 679 mmHg 97%
    02:00 +6°C° 1,9 mm 1 m/s 679 mmHg 98%
    03:00 +4°C° 1,9 mm 2 m/s 680 mmHg 98%
    04:00 +4°C° 1,9 mm 2 m/s 680 mmHg 98%
    05:00 +4°C° 1,1 mm 2 m/s 680 mmHg 98%
    06:00 +4°C° 1,1 mm 2 m/s 680 mmHg 97%
    07:00 +5°C° 1,1 mm 1 m/s 680 mmHg 97%
    08:00 +4°C° 0,8 mm 2 m/s 680 mmHg 97%
    09:00 +5°C° 0,8 mm 2 m/s 680 mmHg 97%
    10:00 +6°C° 0,8 mm 2 m/s 681 mmHg 96%
    11:00 +6°C° 0,8 mm 2 m/s 681 mmHg 96%
    12:00 +6°C° 0,8 mm 2 m/s 681 mmHg 96%
    13:00 +6°C° 0,8 mm 2 m/s 681 mmHg 96%
    14:00 +6°C° 1 mm 2 m/s 681 mmHg 96%
    15:00 +6°C° 1 mm 2 m/s 681 mmHg 96%
    16:00 +6°C° 1 mm 2 m/s 681 mmHg 96%
    17:00 +6°C° 0,5 mm 2 m/s 681 mmHg 96%
    18:00 +7°C° 0,5 mm 1 m/s 681 mmHg 97%
    19:00 +6°C° 0,5 mm 1 m/s 681 mmHg 97%
    20:00 +6°C° 0,3 mm 1 m/s 681 mmHg 97%
    21:00 +5°C° 0,3 mm 1 m/s 682 mmHg 98%
    22:00 +4°C° 0,3 mm 1 m/s 682 mmHg 98%
    23:00 +4°C° 0,2 mm 1 m/s 682 mmHg 98%
    Arată mai mult